Weather History for Robinson, IL

Change the Weather History Date:

Sunday, August 25, 2013

  Actual Average (KLWV) Record (KLWV)
Temperature  
Mean Temperature 74 °F 76 °F  
Max Temperature 90 °F 87 °F 95 °F (1998)
Min Temperature 57 °F 64 °F 59 °F (2013)
Degree Days  
Heating Degree Days 0 0  
Month to date heating degree days 0  
Since 1 June heating degree days 7  
Since 1 July heating degree days 0  
Cooling Degree Days 8 11  
Month to date cooling degree days 293  
Year to date cooling degree days 1120  
Since 1 June cooling degree days 981  
Growing Degree Days 24 (Base 50)    
Moisture  
Dew Point 63 °F    
Average Humidity 72    
Maximum Humidity 99    
Minimum Humidity 37    
Precipitation  
Precipitation 0.00 in 0.12 in 1.66 in (2001)
Month to date precipitation 2.75  
Year to date precipitation 28.71  
Sea Level Pressure  
Sea Level Pressure 30.26 in    
Wind  
Wind Speed 1 mph (SSE)    
Max Wind Speed 8 mph    
Max Gust Speed -    
Visibility 8 miles    
Events Fog    
T = Trace of Precipitation, MM = Missing Value Source: NWS Daily Summary

Daily Weather History Graph

Daily Weather History Graph

Search for Another Location

Airport:

Trip Planner

Search our weather history database for the weather conditions in past years. The results will help you decide how hot, cold, wet, or windy it might be!

Date:

Astronomy

Aug. 25, 2013 Rise Set
Actual Time 6:13 AM CDT 7:31 PM CDT
Civil Twilight 5:45 AM CDT 7:58 PM CDT
Nautical Twilight 5:12 AM CDT 8:32 PM CDT
Astronomical Twilight 4:37 AM CDT 9:06 PM CDT
Moon 10:05 PM CDT (8/25) 11:11 AM CDT (8/25)
Length of Visible Light 14h 13m
Length of Day
13h 17m
Waning Gibbous, 75% of the Moon is Illuminated
Aug 25
Waning Gibbous
Aug 28
Last Quarter
Sep 5
New
Sep 12
First Quarter
Sep 19
Full

Hourly Weather History & Observations

Time (CDT) Temp. Heat Index Dew Point Humidity Pressure Visibility Wind Dir Wind Speed Gust Speed Precip Events Conditions
12:15 AM 62.4 °F - 61.0 °F 95% 30.24 in 10.0 mi Calm Calm - N/A   Clear
12:35 AM 61.9 °F - 60.6 °F 96% 30.24 in 10.0 mi Calm Calm - N/A   Clear
12:55 AM 61.7 °F - 60.3 °F 95% 30.24 in 7.0 mi Calm Calm - N/A   Clear
1:15 AM 61.7 °F - 60.8 °F 97% 30.24 in 7.0 mi Calm Calm - N/A   Clear
1:35 AM 61.7 °F - 60.4 °F 96% 30.24 in 10.0 mi Calm Calm - N/A   Clear
1:55 AM 60.6 °F - 59.4 °F 96% 30.24 in 7.0 mi Calm Calm - N/A   Clear
2:15 AM 60.8 °F - 59.7 °F 96% 30.24 in 7.0 mi Calm Calm - N/A   Clear
2:35 AM 60.6 °F - 59.7 °F 97% 30.25 in 5.0 mi Calm Calm - N/A   Clear
2:55 AM 60.1 °F - 59.0 °F 96% 30.25 in 5.0 mi Calm Calm - N/A   Clear
3:15 AM 59.5 °F - 58.5 °F 96% 30.25 in 7.0 mi Calm Calm - N/A   Clear
3:35 AM 59.5 °F - 58.6 °F 97% 30.26 in 7.0 mi Calm Calm - N/A   Clear
3:55 AM 59.4 °F - 58.5 °F 97% 30.27 in 0.5 mi Calm Calm - N/A Fog Fog
4:15 AM 58.6 °F - 58.1 °F 98% 30.27 in 0.5 mi Calm Calm - N/A Fog Fog
4:35 AM 58.5 °F - 58.1 °F 99% 30.27 in 2.5 mi Calm Calm - N/A   Clear
4:55 AM 58.1 °F - 57.4 °F 97% 30.27 in 1.0 mi Calm Calm - N/A   Mist
5:15 AM 57.9 °F - 57.4 °F 98% 30.28 in 4.0 mi Calm Calm - N/A   Clear
5:35 AM 57.9 °F - 57.2 °F 97% 30.29 in 0.5 mi Calm Calm - N/A Fog Fog
5:55 AM 57.2 °F - 56.7 °F 98% 30.29 in 0.2 mi Calm Calm - N/A Fog Fog
6:15 AM 57.2 °F - 56.5 °F 97% 30.30 in 0.2 mi Calm Calm - N/A Fog Fog
6:35 AM 57.6 °F - 57.2 °F 99% 30.31 in 2.5 mi Calm Calm - N/A   Clear
6:55 AM 59.5 °F - 59.2 °F 99% 30.31 in 4.0 mi Calm Calm - N/A   Clear
7:15 AM 62.2 °F - 61.7 °F 98% 30.31 in 5.0 mi Calm Calm - N/A   Clear
7:35 AM 64.4 °F - 63.7 °F 98% 30.32 in 7.0 mi Calm Calm - N/A   Clear
7:55 AM 67.8 °F - 64.4 °F 89% 30.32 in 10.0 mi Calm Calm - N/A   Clear
8:15 AM 70.7 °F - 65.1 °F 82% 30.32 in 10.0 mi Calm Calm - N/A   Clear
8:35 AM 73.6 °F - 64.9 °F 74% 30.32 in 10.0 mi SE 3.5 mph - N/A   Clear
8:55 AM 75.7 °F - 65.5 °F 70% 30.32 in 10.0 mi Calm Calm - N/A   Clear
9:15 AM 78.3 °F - 66.4 °F 67% 30.32 in 10.0 mi Calm Calm - N/A   Clear
9:35 AM 80.8 °F 82.9 °F 66.4 °F 61% 30.31 in 10.0 mi SE 3.5 mph - N/A   Clear
9:55 AM 82.4 °F 84.6 °F 66.4 °F 58% 30.31 in 10.0 mi Calm Calm - N/A   Clear
10:15 AM 83.5 °F 86.2 °F 67.1 °F 58% 30.31 in 10.0 mi SSE 4.6 mph - N/A   Clear
10:35 AM 84.4 °F 86.3 °F 65.5 °F 53% 30.31 in 10.0 mi SE 6.9 mph - N/A   Clear
10:55 AM 84.9 °F 86.3 °F 64.2 °F 50% 30.31 in 10.0 mi SE 6.9 mph - N/A   Clear
11:15 AM 86.0 °F 87.1 °F 63.7 °F 47% 30.31 in 10.0 mi SE 8.1 mph - N/A   Clear
11:35 AM 86.9 °F 86.7 °F 60.3 °F 41% 30.31 in 10.0 mi ESE 6.9 mph - N/A   Clear
11:55 AM 87.1 °F 86.5 °F 59.4 °F 39% 30.30 in 10.0 mi South 3.5 mph - N/A   Clear
12:15 PM 88.0 °F 87.9 °F 60.6 °F 40% 30.29 in 10.0 mi ESE 6.9 mph - N/A   Clear
12:35 PM 87.4 °F 86.7 °F 58.6 °F 38% 30.28 in 10.0 mi South 3.5 mph - N/A   Clear
12:55 PM 87.6 °F 86.9 °F 59.4 °F 38% 30.28 in 10.0 mi ESE 5.8 mph - N/A   Clear
1:15 PM 88.3 °F 87.6 °F 59.4 °F 37% 30.27 in 10.0 mi Calm Calm - N/A   Clear
1:35 PM 89.2 °F 89.3 °F 61.5 °F 39% 30.27 in 10.0 mi South 6.9 mph - N/A   Clear
1:55 PM 88.3 °F 88.1 °F 60.3 °F 39% 30.26 in 10.0 mi Calm Calm - N/A   Clear
2:15 PM 88.9 °F 88.5 °F 60.3 °F 38% 30.26 in 10.0 mi Calm Calm - N/A   Clear
2:35 PM 89.4 °F 89.0 °F 59.9 °F 37% 30.24 in 10.0 mi Calm Calm - N/A   Clear
2:55 PM 89.6 °F 89.2 °F 60.3 °F 37% 30.24 in 10.0 mi SSW 3.5 mph - N/A   Clear
3:15 PM 89.8 °F 90.0 °F 61.5 °F 39% 30.24 in 10.0 mi South 4.6 mph - N/A   Clear
3:35 PM 89.4 °F 89.0 °F 60.3 °F 37% 30.24 in 10.0 mi Calm Calm - N/A   Clear
3:55 PM 90.0 °F 90.6 °F 62.4 °F 40% 30.24 in 10.0 mi Calm Calm - N/A   Clear
4:15 PM 89.4 °F 89.5 °F 61.2 °F 39% 30.23 in 10.0 mi WSW 3.5 mph - N/A   Clear
4:35 PM 89.6 °F 90.4 °F 62.8 °F 41% 30.23 in 10.0 mi SE 4.6 mph - N/A   Clear
4:55 PM 89.4 °F 89.5 °F 61.5 °F 39% 30.23 in 10.0 mi Calm Calm - N/A   Clear
5:15 PM 89.1 °F 89.6 °F 62.4 °F 41% 30.22 in 10.0 mi ESE 3.5 mph - N/A   Clear
5:35 PM 89.1 °F 90.0 °F 63.3 °F 42% 30.22 in 10.0 mi Calm Calm - N/A   Clear
5:55 PM 88.3 °F 88.6 °F 61.9 °F 41% 30.22 in 10.0 mi Calm Calm - N/A   Clear
6:15 PM 87.6 °F 89.1 °F 64.4 °F 46% 30.22 in 10.0 mi Calm Calm - N/A   Clear
6:35 PM 86.5 °F 88.7 °F 65.7 °F 50% 30.22 in 10.0 mi Calm Calm - N/A   Clear
6:55 PM 83.8 °F 87.3 °F 68.7 °F 60% 30.21 in 10.0 mi Calm Calm - N/A   Clear
7:15 PM 81.0 °F 84.6 °F 70.2 °F 70% 30.22 in 10.0 mi Calm Calm - N/A   Clear
7:35 PM 77.5 °F - 68.7 °F 74% 30.22 in 10.0 mi Calm Calm - N/A   Clear
7:55 PM 73.6 °F - 69.1 °F 86% 30.22 in 10.0 mi Calm Calm - N/A   Clear
8:15 PM 74.1 °F - 69.4 °F 85% 30.22 in 10.0 mi Calm Calm - N/A   Clear
8:35 PM 71.8 °F - 67.8 °F 87% 30.23 in 10.0 mi Calm Calm - N/A   Clear
8:55 PM 70.3 °F - 67.3 °F 90% 30.23 in 10.0 mi Calm Calm - N/A   Clear
9:15 PM 70.0 °F - 67.6 °F 92% 30.24 in 10.0 mi Calm Calm - N/A   Clear
9:35 PM 69.4 °F - 67.1 °F 92% 30.24 in 10.0 mi Calm Calm - N/A   Clear
9:55 PM 68.2 °F - 66.2 °F 93% 30.24 in 10.0 mi Calm Calm - N/A   Clear
10:15 PM 68.0 °F - 66.4 °F 95% 30.24 in 10.0 mi Calm Calm - N/A   Clear
10:35 PM 68.0 °F - 66.2 °F 94% 30.24 in 10.0 mi Calm Calm - N/A   Clear
10:55 PM 67.8 °F - 66.0 °F 94% 30.24 in 10.0 mi Calm Calm - N/A   Clear
11:15 PM 67.5 °F - 65.7 °F 94% 30.24 in 10.0 mi Calm Calm - N/A   Clear
11:35 PM 67.5 °F - 65.7 °F 94% 30.24 in 10.0 mi Calm Calm - N/A   Clear
11:55 PM 68.5 °F - 66.6 °F 93% 30.24 in 10.0 mi Calm Calm - N/A   Clear